RH
97 99 100 100 100 100 100 100 100 100 100 100 99 100 94 87 71 81 91 100 97 98 100 96 90 81 80 100 76 78 83 81 89 94 89 95 96 100 100 96 89 88 91
97 99 100 100 100 100 100 100 100 100 100 100 100 100 88 71 61 70 98 98 97 100 92 86 76 76 84 89 87 82 80 88 89 91 100 100 100 100 100 100 99 98 96
97 99 100 100 100 100 100 100 100 100 100 100 100 100 100 78 81 92 100 99 96 96 98 86 90 84 82 97 99 88 90 94 98 94 99 99 100 100 100 100 100 100 100
98 100 100 100 100 100 100 100 100 100 100 100 100 100 100 99 99 100 100 100 100 99 97 74 72 64 69 100 100 92 96 100 100 100 99 100 100 100 100 99 100 100 100
99 100 100 100 100 100 100 100 100 100 100 100 100 100 100 98 100 100 99 100 99 97 92 87 81 92 100 100 100 100 96 100 100 100 97 99 99 99 99 99 100 100 100
100 100 100 100 100 100 99 100 100 100 100 100 100 100 100 100 99 99 98 100 99 91 96 100 100 100 100 99 96 100 99 100 100 100 98 98 98 97 100 100 100 99 99
100 99 99 100 100 100 100 99 100 99 100 100 100 100 100 100 100 93 99 100 100 100 100 100 100 100 100 100 100 100 100 100 100 100 100 97 95 96 98 100 100 99 98
99 100 99 100 100 100 100 100 100 99 99 99 100 100 100 100 100 97 95 95 100 100 100 100 100 100 100 99 100 100 100 100 100 99 100 99 100 98 93 92 100 100 100
98 100 100 99 100 100 100 100 99 99 99 99 99 99 100 100 99 100 94 92 98 100 100 100 100 100 100 100 100 100 100 100 100 100 100 100 99 100 100 99 100 98 100
98 91 97 98 98 100 100 98 98 99 98 98 98 99 100 99 98 98 98 96 99 98 99 100 100 99 100 100 100 100 100 100 100 100 100 100 100 100 100 100 99 98 98
96 89 80 88 88 83 91 97 100 95 97 99 99 99 99 98 99 99 98 98 99 100 99 98 100 98 100 100 100 99 99 100 100 100 100 100 100 100 100 100 100 100 96
78 88 85 80 88 86 80 80 93 98 93 92 95 97 100 100 100 100 98 97 97 98 97 99 99 98 100 100 100 100 99 99 100 100 100 100 100 100 100 100 100 100 100
72 77 86 86 84 90 91 91 81 86 95 95 95 96 98 99 99 95 97 97 97 97 98 97 96 97 97 100 99 97 96 96 99 100 100 100 100 100 100 100 99 100 100
77 82 82 85 90 91 95 96 96 90 91 94 97 97 96 98 94 97 100 97 94 98 98 97 97 96 96 96 96 97 96 100 100 100 100 100 98 96 97 98 99 99 98
87 83 84 85 85 90 98 99 98 96 91 97 99 95 96 96 91 86 92 98 95 94 94 94 97 97 97 97 97 96 96 96 97 96 96 97 97 96 96 97 97 96 97
94 90 82 85 84 85 82 89 100 96 85 78 91 100 93 86 93 84 84 86 91 89 89 94 98 100 100 98 97 97 96 96 96 96 96 97 97 97 97 96 96 97 96
75 86 81 73 77 76 75 78 80 87 74 58 84 95 99 86 87 94 86 85 82 79 93 97 99 99 99 97 98 100 99 97 96 96 96 96 96 96 96 96 96 97 97
62 69 74 72 68 68 71 71 71 87 84 65 52 76 91 88 86 92 98 93 97 95 95 99 100 100 100 98 92 94 95 95 96 96 96 96 96 96 96 96 96 96 97
70 64 67 71 66 65 71 71 74 80 92 76 67 62 73 92 92 83 77 97 100 100 100 100 100 100 100 96 96 90 93 97 97 90 85 89 95 93 94 91 93 95 95
67 63 70 66 68 78 81 88 82 84 91 92 87 84 68 72 100 86 83 87 93 96 100 99 90 92 94 97 97 94 89 90 94 95 89 82 72 66 62 58 60 72 68
70 67 76 70 74 86 78 93 96 86 85 88 90 91 73 71 82 84 81 83 86 79 87 99 100 91 90 92 93 98 97 96 90 90 92 89 82 72 62 56 49 50 50
71 73 81 79 74 81 78 87 91 92 91 93 95 96 88 84 84 78 73 68 79 80 73 76 85 94 100 99 93 96 94 95 93 93 89 87 86 79 70 63 59 57 56
68 67 71 76 75 74 74 73 80 77 78 93 91 87 95 96 98 97 86 72 64 83 80 76 78 74 94 95 92 86 91 93 96 100 97 98 85 81 82 77 69 65 68
82 75 79 83 82 79 79 71 64 74 70 78 63 79 94 93 92 99 96 90 76 70 75 84 84 80 76 73 76 69 52 93 92 98 99 95 96 91 79 85 81 71 68
89 87 87 92 95 98 96 96 85 78 74 68 60 82 84 72 78 83 84 95 94 77 86 93 87 84 71 84 83 72 54 62 92 99 96 96 96 91 84 76 81 73 79
77 81 89 91 93 91 96 100 98 98 96 95 77 81 72 71 70 71 83 96 95 86 93 100 95 88 88 89 93 85 72 58 91 100 97 93 92 90 90 91 84 73 80
Wind_Speed
28 27 28 30 30 30 28 28 30 31 30 27 23 30 33 37 33 38 35 32 32 33 36 40 41 39 37 27 31 30 26 23 6 11 23 25 23 29 30 32 33 35 36
27 28 28 29 29 28 28 29 30 31 30 28 23 21 27 30 31 36 29 29 31 32 37 39 42 39 37 30 25 29 25 27 16 9 18 21 23 29 30 31 33 35 34
27 28 29 29 30 29 30 31 30 33 33 33 25 21 15 14 29 32 31 31 29 32 34 34 31 25 25 24 25 27 27 26 24 15 13 21 24 26 26 28 27 31 32
28 29 29 30 30 29 29 31 32 34 35 36 32 26 22 16 0 7 26 26 26 26 27 29 21 18 27 26 24 27 24 21 22 19 14 15 20 23 29 27 23 27 30
26 27 28 29 28 29 31 32 33 35 35 32 30 31 28 32 24 10 13 18 25 22 18 19 16 21 17 25 24 24 26 24 18 17 15 14 16 14 24 21 17 27 22
24 26 28 27 28 30 31 34 36 37 34 34 34 34 36 30 32 14 8 23 18 18 15 13 16 22 22 20 18 22 23 22 19 14 15 13 19 19 22 26 21 10 3
25 26 26 25 28 30 31 33 34 36 34 36 37 36 38 40 36 25 29 22 21 20 19 17 14 12 14 15 16 15 17 18 19 16 14 19 20 26 28 28 30 26 17
24 24 25 28 30 31 33 34 33 31 33 38 40 39 39 44 39 33 26 40 31 28 17 14 11 10 10 11 12 10 8 6 8 14 19 26 22 26 39 41 34 20 17
25 25 27 29 29 31 32 33 32 33 35 36 34 40 42 47 46 35 31 39 26 37 33 27 13 11 8 12 12 13 11 7 3 4 11 16 23 26 35 31 28 27 5
22 26 25 27 30 31 32 31 29 29 31 32 35 39 36 40 48 42 38 32 32 34 32 30 29 22 11 11 14 13 13 7 5 6 6 6 7 20 28 30 40 28 12
18 25 32 30 30 34 31 30 29 29 30 31 32 37 40 41 40 41 42 37 30 28 27 29 31 26 22 20 17 15 13 10 11 11 14 14 13 12 10 14 26 26 23
19 20 27 32 30 33 33 32 30 28 28 29 30 32 36 40 39 37 36 34 33 30 27 24 29 27 25 28 26 20 17 15 15 17 19 21 19 18 16 12 11 17 18
25 24 22 27 32 28 29 30 31 30 28 27 27 27 29 32 35 35 33 32 31 29 26 27 29 28 28 34 28 24 23 20 20 19 20 21 20 17 18 20 18 16 16
24 25 25 24 24 28 26 25 27 29 28 28 27 26 26 28 30 32 31 28 25 24 24 28 29 30 32 33 32 30 29 24 23 20 18 22 20 20 20 19 22 24 27
20 23 24 24 24 20 22 24 24 27 29 25 25 27 27 28 29 27 28 27 23 22 23 27 27 26 26 27 27 27 24 22 21 22 22 22 23 23 19 19 21 25 22
19 20 24 24 24 22 23 18 16 21 26 25 23 26 25 26 27 25 26 27 24 22 27 24 23 23 23 21 21 21 22 21 18 19 21 19 18 20 20 22 22 21 21
25 24 22 25 24 24 23 22 20 13 23 28 24 26 26 25 27 26 24 24 27 28 26 23 22 22 21 22 20 19 19 18 17 19 18 18 17 18 18 18 18 18 19
23 22 19 20 22 23 23 22 23 21 22 28 29 27 26 24 26 27 24 26 27 27 24 22 21 20 20 20 21 20 18 17 16 16 15 14 15 14 15 15 16 16 15
19 21 19 20 22 23 22 22 22 22 19 23 26 27 25 23 24 26 26 28 24 24 22 21 21 21 22 21 19 18 17 18 17 17 15 12 12 14 14 13 14 14 13
18 19 19 19 21 22 23 22 22 21 20 20 22 22 23 24 23 27 27 26 25 24 22 20 20 20 18 18 18 16 16 16 16 15 15 12 11 11 11 13 15 17 13
17 19 19 20 23 22 21 21 21 21 20 17 17 16 18 19 19 20 20 21 20 21 19 18 18 18 16 16 14 14 14 14 14 14 13 13 10 11 12 14 14 14 14
19 20 18 20 20 21 21 21 22 21 22 21 20 15 16 16 15 14 14 16 15 15 17 16 15 15 14 14 13 12 11 12 12 11 10 9 8 9 8 10 12 14 14
16 17 17 17 17 17 18 19 20 20 20 20 20 20 19 16 14 10 9 12 13 14 15 15 16 16 11 11 12 12 10 9 8 9 8 7 5 6 8 9 10 11 11
14 15 16 15 15 15 15 14 15 15 16 16 18 18 17 17 17 17 9 8 12 12 13 14 14 15 16 13 11 13 11 5 5 4 7 7 7 9 8 9 8 7 7
13 15 16 17 18 19 20 17 15 15 13 11 12 11 13 14 14 14 13 10 7 11 12 11 11 13 14 11 13 16 14 8 4 2 2 4 6 9 8 9 8 8 8
14 16 16 17 18 20 21 21 21 21 24 16 12 10 10 9 10 11 12 10 9 9 10 9 9 8 10 11 9 12 14 10 4 4 2 2 3 5 7 8 8 6 7
Wind_Direction
358 353 350 346 342 337 330 324 326 325 323 325 314 263 250 238 236 238 221 204 198 194 193 198 214 229 223 207 195 218 198 197 191 200 224 218 218 218 223 224 225 228 233
356 357 354 348 344 344 336 337 342 336 343 342 338 318 254 251 244 236 213 207 199 193 198 203 217 219 213 211 201 203 217 216 206 192 201 211 212 216 216 220 221 226 229
359 360 359 353 350 350 347 349 351 355 358 360 359 358 334 270 249 225 221 216 214 206 201 206 205 219 220 209 202 199 200 210 209 200 193 200 211 220 209 213 209 218 224
3 4 1 357 355 353 359 0 3 8 9 5 10 12 15 29 182 286 226 207 197 198 197 198 198 235 217 202 197 197 191 195 204 203 197 197 203 209 204 193 185 197 205
5 6 3 1 0 7 10 11 13 18 18 15 13 21 25 21 18 318 236 207 190 183 189 210 232 222 201 207 194 194 196 191 197 210 210 201 200 195 190 187 177 186 187
9 7 8 4 10 14 16 20 21 20 19 24 21 23 25 18 15 11 283 199 174 175 171 158 160 185 194 197 205 203 203 196 196 206 213 207 203 201 188 178 163 156 173
12 11 11 11 17 18 20 23 25 25 21 28 28 28 27 23 27 33 37 73 126 153 159 155 148 150 161 164 179 195 199 207 212 214 220 220 212 204 196 187 190 190 183
16 14 14 20 20 18 22 23 23 20 23 30 30 30 32 27 33 46 46 52 51 65 83 112 127 127 146 161 161 162 165 198 232 236 241 244 241 224 220 213 199 170 162
20 18 18 22 24 23 20 20 20 24 27 29 27 32 36 34 34 46 57 56 30 44 41 49 65 87 93 141 150 142 134 124 104 228 225 231 238 234 205 192 160 150 123
26 27 29 32 30 30 24 23 22 26 30 32 33 32 30 35 36 39 50 59 51 47 33 37 43 52 78 111 128 128 105 80 117 143 129 128 153 171 179 192 187 171 140
33 35 38 37 34 35 31 27 25 26 31 30 33 33 32 33 34 39 47 49 50 51 40 36 42 42 57 73 94 94 98 105 99 95 91 85 91 115 138 168 184 186 166
37 40 41 43 40 36 34 28 27 28 30 29 30 29 26 28 34 37 46 49 50 50 50 45 50 45 50 64 68 80 93 91 85 82 72 65 70 77 77 97 139 182 194
40 32 34 36 41 41 36 33 29 29 30 28 29 27 23 23 25 33 42 48 53 53 56 58 58 56 49 55 58 68 73 78 73 66 66 63 68 79 94 94 99 110 122
34 32 31 34 32 38 43 40 39 37 33 30 27 25 21 23 25 25 29 39 51 49 50 55 57 59 62 61 58 53 64 63 71 70 68 80 88 85 84 92 89 96 96
35 33 33 32 33 31 41 43 51 51 44 36 31 29 23 23 24 28 32 35 40 48 51 49 45 42 40 43 49 57 54 58 57 65 67 66 72 78 71 86 89 93 91
32 31 32 29 30 33 36 37 46 55 40 36 35 30 35 31 28 30 34 37 40 47 50 42 38 38 39 36 38 42 49 57 63 71 69 67 67 71 75 79 82 82 89
35 28 28 28 28 28 34 36 36 41 33 36 35 34 34 36 31 31 34 39 41 49 47 39 37 34 34 39 41 35 38 58 70 71 70 75 78 82 80 81 84 85 85
33 31 30 36 34 32 33 38 37 48 41 35 38 37 34 33 33 34 36 43 35 39 42 39 34 30 32 35 43 47 53 55 62 68 76 82 84 82 82 84 89 90 89
31 28 34 38 33 29 31 34 37 41 44 42 38 35 34 36 36 36 37 43 34 29 28 33 34 33 31 33 41 46 48 52 59 65 66 70 89 102 104 112 114 112 113
35 33 41 40 36 33 34 31 33 35 36 30 34 34 30 31 37 37 36 36 34 32 30 32 31 33 35 35 35 41 47 49 51 56 61 78 86 101 95 97 120 121 126
39 37 43 40 36 34 29 26 24 29 26 26 28 32 27 31 37 37 39 35 31 26 22 35 34 30 24 26 30 38 46 51 51 50 52 66 87 90 95 100 109 118 123
40 39 38 36 32 30 28 28 27 28 24 21 18 24 22 25 23 21 25 27 23 20 17 11 12 16 25 20 17 29 36 41 38 38 48 56 77 93 106 110 116 116 124
36 33 30 28 26 24 25 25 24 22 20 22 21 16 20 23 19 359 5 20 18 17 16 16 9 12 11 16 14 6 359 10 17 25 45 56 84 101 119 114 115 116 105
28 24 18 12 11 11 10 10 11 10 12 11 9 9 17 22 21 19 349 8 11 16 6 1 5 11 1 2 351 351 355 335 347 28 55 59 92 108 118 115 117 110 119
17 16 16 12 9 9 3 349 347 345 343 345 356 6 4 4 6 7 12 358 10 5 355 346 352 2 10 16 20 17 9 2 15 19 66 91 97 104 116 117 118 115 108
20 17 17 18 19 15 17 11 2 9 357 320 327 330 341 350 355 352 354 0 3 3 355 348 336 351 353 357 358 5 5 2 8 38 41 114 126 127 119 112 125 119 115